Location: ???? ??
(36.0534°N, 43.5630°E)
Time: 17:30:33
(UTC+00:00)

Cosmos 2251 Rocket - Pass Details

Date: 18 September 2019
Orbit: 764 x 792 km, 74.0° (Epoch: 19 October)

Event Time Altitude Azimuth Distance (km) Brightness Sun altitude
Rises 15:42:36 0° 346° (NNW) 3,297 7.1 -7.5°
Reaches altitude 10° 15:45:03 10° 351° (N) 2,364 6.3 -8.0°
Maximum altitude 15:50:21 57° 70° (ENE) 928 3.7 -9.1°
Drops below altitude 10° 15:55:36 10° 149° (SSE) 2,344 5.6 -10.1°
Sets 15:58:01 0° 153° (SSE) 3,266 6.4 -10.6°
